Regional & State Weather Roundups


019 
ASUS41 KLWX 021810
RWRLWX
REGIONAL WEATHER ROUNDUP
NATIONAL WEATHER SERVICE BALTIMORE MD/WASHINGTON DC
200 PM EDT TUE SEP 02 2014
Note: "FAIR" indicates few or no clouds below 12,000 feet
with no significant weather and/or obstructions to visibility.
 TC=TEMPERATURE CELSIUS
 * =Non NWS site. Station does not report precipitation (e.g. rain,
    snow, etc.), thunder, or fog.
DCZ001-MDZ009-015-VAZ040>042-051-053>054-021900-
WASHINGTON METRO
  
CITY           SKY/WX    TMP DP  RH WIND       PRES   REMARKS
WASHINGTON NAT MOSUNNY   93  69  45 S10       29.93F HX  98           
DULLES         MOSUNNY   89  70  53 S8        29.94F HX  94           
ANDREWS AFB    MOSUNNY   91  70  49 VRB6      29.95F HX  96           
QUANTICO       MOSUNNY   88  75  65 S9        29.94F HX  97           
COLLEGE PARK*  PTSUNNY   91  66  43 W7        29.93F HX  94           
LEESBURG*      MOSUNNY   91  73  55 SW6       29.94F HX 100           
MANASSAS*      SUNNY     91  72  52 S8        29.94F HX  98           
GAITHERSBURG*  PTSUNNY   90  70  51 SW5       29.97F HX  95           
$$
MDZ006>007-011-014-021900-
BALTIMORE METRO
  
CITY           SKY/WX    TMP DP  RH WIND       PRES   REMARKS
BWI AIRPORT    MOSUNNY   90  69  50 W7        29.92F HX  94           
MD SCIENCE CTR   N/A     90  68  48 MISG      29.92F HX  94           
MARTIN STATE   MOSUNNY   91  72  52 W3        29.93F HX  98           
ANNAPOLIS      MOSUNNY   90  67  46 NW8       29.93F HX  93           
FORT MEADE*    MOSUNNY   90  70  51 CALM      29.96F HX  95           
$$
MDZ012-015-019>023-021900-
MARYLAND EASTERN SHORE
  
CITY           SKY/WX    TMP DP  RH WIND       PRES   REMARKS
OCEAN CITY     MOSUNNY   90  76  63 S8        29.94F HX 101           
SALISBURY      SUNNY     96  67  38 VRB7      29.94F HX 100           
BAY BRIDGE AP*   N/A     90  66  45 SW6       29.94S HX  92           
CAMBRIDGE*     SUNNY     91  64  40 W6        29.94F HX  93           
EASTON*        MOSUNNY   93  68  43 W5        29.98F HX  97           
$$
MDZ017>025-021900-
SOUTHERN MARYLAND
  
CITY           SKY/WX    TMP DP  RH WIND       PRES   REMARKS
PATUXENT RIVER MOSUNNY   90  71  53 E9        29.94F HX  96           
ST INIGOES     SUNNY     92  69  47 SW6       29.94F HX  97           
LEONARDTOWN*   MOSUNNY   91  63  38 SW8       29.96S HX  92           
$$
MDZ003>005-021900-
NORTH CENTRAL MARYLAND
  
CITY           SKY/WX    TMP DP  RH WIND       PRES   REMARKS
FREDERICK*     PTSUNNY   88  70  55 CALM      29.95F HX  92           
HAGERSTOWN APT SUNNY     87  67  51 SW7       29.92F HX  90           
WESTMINSTER*   MOSUNNY   88  70  55 W3        29.95F HX  92           
$$
MDZ501>502-021900-
WESTERN MARYLAND
  
CITY           SKY/WX    TMP DP  RH WIND       PRES   REMARKS
OAKLAND*       PTSUNNY   77  68  73 SW12G17   30.06S                  
CUMBERLAND*    MOSUNNY   93  64  38 S13       29.95F HX  95           
$$
VAZ025>031-021900-
SHENANDOAH VALLEY
  
CITY           SKY/WX    TMP DP  RH WIND       PRES   REMARKS
WINCHESTER*    CLOUDY    90  68  48 S5        29.94F HX  93           
STAUNTON*      PTSUNNY   89  62  39 W3        30.01F HX  90           
$$
WVZ021-048>050-054>055-021900-
EASTERN WEST VIRGINIA PANHANDLE
  
CITY           SKY/WX    TMP DP  RH WIND       PRES   REMARKS
MARTINSBURG    CLOUDY    89  66  46 S12       29.93F HX  91           
PETERSBURG*    NOT AVBL                                               
$$
VAZ036>039-050-021900-
CENTRAL FOOTHILLS
  
CITY           SKY/WX    TMP DP  RH WIND       PRES   REMARKS
CHARLOTTESVILL SUNNY     90  68  48 SW9       29.96F HX  94           
ORANGE*        MOSUNNY   91  68  46 S10       29.97F HX  95           
$$
VAZ055>057-021900-
NORTH AND CENTRAL PIEDMONT
  
CITY           SKY/WX    TMP DP  RH WIND       PRES   REMARKS
FREDERICKSBRG* SUNNY     93  70  45 W8        29.94F HX  99           
STAFFORD*      MOSUNNY   90  70  52 CALM      29.98F HX  95           
$$
NCZ024-NYZ072-PAZ021-071-VAZ022-071-021900-
OTHER REGIONAL OBSERVATIONS
  
CITY           SKY/WX    TMP DP  RH WIND       PRES   REMARKS
NEW YORK CITY  PTSUNNY   88  67  49 VRB7      29.89F HX  91           
PHILADELPHIA   MOSUNNY   91  69  48 SW13      29.90F HX  96           
PITTSBURGH     PTSUNNY   80  69  69 SW13      29.91F                  
ROANOKE        MOSUNNY   91  65  41 SW9       30.04F HX  93           
RICHMOND       MOSUNNY   98  62  30 SW7G21    29.96F HX  99           
RALEIGH        MOSUNNY   94  69  44 VRB6      30.03F HX  99           
$$
ANZ530>537-021900-
MARINE OBSERVATIONS
  
STATION/POSITION TIME  TEMP    WIND        PRES
                       AIR SEA DIR/SP/G
                 (UTC) (F)     (DEG/KT/KT) (MB)
THOMAS PT LIGHT  1800   85 81  170/  8/  8 1014.7F
BALT KEY BRIDGE  1800          250/  9/ 10 1013.5F
COVE POINT       1800   86     130/  5/  6 1013.9F
LEWISETTA        1800   85 81   80/  6/  8 1013.8F
SOLOMONS ISLAND  1800      80                N/A
PINEY POINT      1800          360/  3/  4   N/A
$$